Regional Weather Roundup
Issued by NWS

Home | Current Version | Previous Version | Graphics & Text | Print | Product List | Glossary On
Versions: 1 2 3 4 5 6 7 8 9 10 11 12 13 14 15 16 17 18 19 20 21 22 23 24 25 26 27 28 29 30 31 32 33 34 35 36 37 38 39 40 41 42 43 44 45 46 47 48 49 50
000
ASUS43 KDTX 031910
RWRMI
MICHIGAN HOURLY REGIONAL WEATHER ROUNDUP
NATIONAL WEATHER SERVICE DETROIT/PONTIAC MI
200 PM EST TUE MAR 03 2015

NOTE: "FAIR" INDICATES FEW OR NO CLOUDS BELOW 12,000 FEET WITH NO
SIGNIFICANT WEATHER AND/OR OBSTRUCTION TO VISIBILITY.

MIZ047>049-052>055-059>063-066>070-074>076-081>083-032000-
SOUTHEAST LOWER MICHIGAN

CITY           SKY/WX    TMP DP  RH WIND       PRES   REMARKS
ADRIAN         FRZ RAIN  30  28  92 S15       29.70F FOG     WCI  19
ALMA           MIX PCPN  26  25  96 SE6       29.62F WCI  19
ANN ARBOR      CLOUDY    29  26  89 S13       29.68F FOG     WCI  19
BAD AXE        CLOUDY    24  22  91 SE10G17   29.67F WCI  13
CARO           CLOUDY    26  21  83 SE10      29.64F WCI  15
DETROIT CITY   CLOUDY    30  23  75 S14       29.71F HAZE    WCI  19
DETROIT        FRZ RAIN  29  25  85 SE10G21   29.71F FOG     WCI  20
FLINT          CLOUDY    30  24  78 S22       29.61F WCI  17
GROSSE ILE     MIX PCPN  28  25  86 SE15      29.68F WCI  17
HILLSDALE      MIX PCPN  30  29  97 S10       29.64F WCI  21
HOWELL         CLOUDY    28  26  91 S18       29.63F FOG     WCI  15

CITY           SKY/WX    TMP DP  RH WIND       PRES   REMARKS
JACKSON        CLOUDY    29  26  89 S17G28    29.61F FOG     WCI  17
LAMBERTVILLE   CLOUDY    32  28  86 S8        29.72F HAZE    WCI  25
LANSING        FRZ RAIN  29  25  85 S17G24    29.61F FOG     WCI  17
LAPEER         CLOUDY    27  23  85 S12G17    29.64F WCI  16
MASON          CLOUDY    28  26  89 S13       29.61F FOG     WCI  18
MONROE         MIX PCPN  30  27  86 S10       29.69F WCI  21
MT. CLEMENS    FRZ RAIN  28  24  88 S16       29.68F FOG     WCI  15
PONTIAC        CLOUDY    27  24  89 S15G26    29.65F FOG     WCI  15
PORT HOPE        N/A     24  20  84 SE14      29.68F WCI  12
PORT HURON     MIX PCPN  28  25  86 S17G26    29.70  WCI  16
TRI CITIES     CLOUDY    26  22  84 SE12      29.63F FOG     WCI  16
TROY           CLOUDY    30  26  85 S9G18     29.71F FOG     WCI  22
SAGINAW HB     CLOUDY    28  23  80 SE9       29.63F FOG     WCI  20
$$
MIZ043>046-050>051-056>058-064>065-071>073-077>080-032000-
SOUTHWEST LOWER MICHIGAN

CITY           SKY/WX    TMP DP  RH WIND       PRES   REMARKS
BATTLE CREEK   CLOUDY    31  27  85 S17       29.64S FOG     WCI  19
BENTON HARBOR  CLOUDY    32  31  96 SW10      29.63F FOG     WCI  24
BIG RAPIDS     LGT SNOW  26  25  99 S8        29.59F WCI  17
COLDWATER      MIX PCPN  31  29  94 S17G23    29.61F WCI  19
FREMONT        MIX PCPN  27  26  95 S6        29.61F WCI  21
HOLLAND        MIX PCPN  32  29  88 S14       29.63F FOG     WCI  22
GRAND RAPIDS   FRZ DRZL  29  27  92 S13       29.63F VSB 1   WCI  19
IONIA          MIX PCPN  30  28  93 S13       29.61F WCI  20
KALAMAZOO      FRZ DRZL  31  28  89 S15G23    29.64R WCI  20
LUDINGTON      MIX PCPN  28  25  88 SW9       29.61F WCI  19
MARSHALL       CLOUDY    29  27  92 S10G18    29.61F FOG     WCI  20
MOUNT PLEASANT LGT SNOW  25  23  93 SE6       29.62F WCI  18
MUSKEGON       FRZ RAIN  30  28  92 S13G22    29.62F VSB 1   WCI  20
SOUTH HAVEN    MIX PCPN  33  31  93 SW8       29.63F WCI  26
$$
MIZ016>042-032000-
NORTHERN LOWER MICHIGAN

CITY           SKY/WX    TMP DP  RH WIND       PRES   REMARKS
ALPENA         LGT SNOW  23  20  88 S10       29.67F VSB 3/4 WCI  12
BEAVER ISLAND  LGT SNOW  24  21  89 S8G16     29.60F WCI  15
BELLAIRE       LGT SNOW  25  21  85 S5        29.61F WCI  19
CADILLAC       MIX PCPN  24  21  91 S9        29.55F WCI  14
CHARLEVOIX     LGT SNOW  24  22  93 SE9       29.63F VSB 3/4 WCI  14
FRANKFORT      MIX PCPN  26  24  93 S6        29.60S WCI  20
GAYLORD        SNOW      20  19  96 S9        29.56F VSB 1/2 WCI   9
GRAYLING       LGT SNOW  22  19  90 SE8       29.58F WCI  12
HARBOR SPRINGS SNOW      24  22  91 E3        29.60F VSB 1/2
HOUGHTON LAKE  LGT SNOW  22  19  89 SE9       29.59F FOG     WCI  12
MANISTEE       CLOUDY    27  21  80 S6        29.61F WCI  20
OSCODA         LGT SNOW  25  22  89 S9G18     29.67F WCI  15
PELLSTON       SNOW      23  20  88 SE7       29.60F VSB 1/2 WCI  15
ROGERS CITY    SNOW      23  22  95 SE12      29.66F VSB 1/2 WCI  12
TRAVERSE CITY  LGT SNOW  25  21  85 S3        29.59F FOG
$$
MIZ007>008-015-032000-
EASTERN UPPER MICHIGAN

CITY           SKY/WX    TMP DP  RH WIND       PRES   REMARKS
KINROSS        CLOUDY    25  21  86 S12       29.62F WCI  14
MACKINAC ISLAN LGT SNOW  24  20  87 SE7       29.61F VSB 3/4 WCI  16
NEWBERRY       SNOW      22  20  94 SE6       29.59F VSB 1/4 WCI  14
S. S. MARIE    LGT SNOW  21  18  86 E5        29.64F VSB 1   WCI  15
MUNISING         N/A     29  24  82 S6        29.55F WCI  23
$$
MIZ004>006-011>014-085-032000-
CENTRAL UPPER MICHIGAN

CITY           SKY/WX    TMP DP  RH WIND       PRES   REMARKS
MANISTIQUE     LGT SNOW  24  23  96 SE12      29.58F WCI  13
ESCANABA       CLOUDY    27  25  93 S10       29.57F VSB 1/4 WCI  17
MENOMINEE      CLOUDY    28  27  93 W5        29.56F WCI  23
SAWYER-GWINN   LGT SNOW  23  21  93 S6        29.53F VSB 1   WCI  16
$$
MIZ001>003-009>011-084-032000-
WESTERN UPPER MICHIGAN

CITY           SKY/WX    TMP DP  RH WIND       PRES   REMARKS
IRON MOUNTAIN  LGT SNOW  24  19  81 SW6       29.53F VSB 1   WCI  17
HOUGHTON       SNOW      22  18  85 SW6       29.51F VSB 1/2 WCI  14
COPPER HARBOR    N/A     24  19  81 W7        29.53F WCI  16
IRONWOOD       CLOUDY    25  18  74 SW13G20   29.52F WCI  13
$$

ABBREVIATIONS USED IN REMARKS
   TC - TEMPERATURE IN CELSIUS
  WCI - WIND CHILL INDEX
   HX - HEAT INDEX
  VSB - VISIBILITY




USA.gov is the U.S. government's official web portal to all federal, state and local government web resources and services.